Weather History for KJAN - March, 2014

Change the Weather History Date:

Thursday, March 27, 2014

  Actual Average Record
Temperature  
Mean Temperature 62 °F 60 °F  
Max Temperature 75 °F 71 °F 88 °F (1935)
Min Temperature 48 °F 48 °F 23 °F (1955)
Degree Days  
Heating Degree Days 3 7  
Month to date heating degree days 319 253  
Since 1 July heating degree days 2585 2245  
Cooling Degree Days 0 1  
Month to date cooling degree days 1 24  
Year to date cooling degree days 7 34  
Growing Degree Days 12 (Base 50)    
Moisture  
Dew Point 49 °F    
Average Humidity 71    
Maximum Humidity 93    
Minimum Humidity 49    
Precipitation  
Precipitation 1.40 in 0.17 in 6.28 in (1902)
Month to date precipitation 3.35 4.35  
Year to date precipitation 10.40 14.08  
Sea Level Pressure  
Sea Level Pressure 30.04 in    
Wind  
Wind Speed 14 mph (SSE)    
Max Wind Speed 26 mph    
Max Gust Speed 33 mph    
Visibility 8 miles    
Events Rain , Thunderstorm    
T = Trace of Precipitation, MM = Missing Value Source: NWS Daily Summary

Daily Weather History Graph

Daily Weather History Graph

Search for Another Location

Airport or City:

Trip Planner

Search our weather history database for the weather conditions in past years. The results will help you decide how hot, cold, wet, or windy it might be!

Date:

Astronomy

Mar. 27, 2014 Rise Set
Actual Time 6:54 AM CDT 7:16 PM CDT
Civil Twilight 6:30 AM CDT 7:41 PM CDT
Nautical Twilight 6:01 AM CDT 8:10 PM CDT
Astronomical Twilight 5:32 AM CDT 8:39 PM CDT
Moon 4:35 AM CDT (3/27) 4:14 PM CDT (3/27)
Length of Visible Light 13h 10m
Length of Day
12h 21m
Waning Crescent, 13% of the Moon is Illuminated
Mar 27
Waning Crescent
Mar 30
New
Apr 7
First Quarter
Apr 15
Full
Apr 22
Last Quarter

Hourly Weather History & Observations

Time (CDT) Temp. Dew Point Humidity Pressure Visibility Wind Dir Wind Speed Gust Speed Precip Events Conditions
12:54 AM 50.0 °F 32.0 °F 50% 30.17 in 10.0 mi SSE 9.2 mph - N/A   Mostly Cloudy
1:54 AM 48.9 °F 32.0 °F 52% 30.15 in 10.0 mi SSE 8.1 mph - N/A   Mostly Cloudy
2:54 AM 48.9 °F 33.1 °F 54% 30.12 in 10.0 mi SSE 10.4 mph - N/A   Overcast
3:54 AM 48.9 °F 34.0 °F 56% 30.12 in 10.0 mi South 8.1 mph - N/A   Overcast
4:54 AM 48.0 °F 36.0 °F 63% 30.10 in 10.0 mi SSE 9.2 mph - N/A   Overcast
5:54 AM 48.9 °F 37.0 °F 64% 30.09 in 10.0 mi SSE 8.1 mph - N/A   Overcast
6:54 AM 48.9 °F 37.9 °F 66% 30.11 in 10.0 mi SSE 9.2 mph - N/A   Mostly Cloudy
7:54 AM 50.0 °F 39.0 °F 66% 30.11 in 10.0 mi SE 11.5 mph - N/A   Mostly Cloudy
8:54 AM 55.0 °F 42.1 °F 62% 30.10 in 10.0 mi SSE 12.7 mph 25.3 mph N/A   Scattered Clouds
9:54 AM 60.1 °F 46.0 °F 60% 30.10 in 10.0 mi SSE 12.7 mph 19.6 mph N/A   Overcast
10:54 AM 64.0 °F 48.9 °F 58% 30.09 in 10.0 mi SSE 13.8 mph 20.7 mph N/A   Mostly Cloudy
11:54 AM 69.1 °F 51.1 °F 53% 30.07 in 10.0 mi SE 18.4 mph - N/A   Overcast
12:54 PM 71.1 °F 51.1 °F 49% 30.05 in 10.0 mi South 21.9 mph 28.8 mph N/A   Mostly Cloudy
1:54 PM 72.0 °F 52.0 °F 49% 30.01 in 10.0 mi SSE 21.9 mph - N/A   Mostly Cloudy
2:54 PM 71.1 °F 53.1 °F 53% 29.99 in 10.0 mi South 19.6 mph 27.6 mph N/A   Mostly Cloudy
3:54 PM 71.1 °F 54.0 °F 55% 29.97 in 10.0 mi South 19.6 mph 27.6 mph N/A   Overcast
4:54 PM 69.1 °F 55.0 °F 61% 29.96 in 10.0 mi SSE 19.6 mph 26.5 mph N/A   Overcast
5:54 PM 68.0 °F 55.0 °F 63% 29.94 in 10.0 mi SSE 21.9 mph 31.1 mph N/A   Mostly Cloudy
6:54 PM 63.0 °F 57.9 °F 84% 29.96 in 10.0 mi SSE 10.4 mph - 0.04 in   Overcast
7:54 PM 64.0 °F 57.0 °F 78% 29.96 in 10.0 mi South 15.0 mph 21.9 mph N/A   Overcast
8:54 PM 63.0 °F 57.9 °F 84% 29.97 in 10.0 mi SSE 12.7 mph - 0.00 in Rain Light Rain
9:04 PM 62.6 °F 57.2 °F 82% 29.98 in 10.0 mi SSE 13.8 mph - 0.01 in Rain , Thunderstorm Light Thunderstorms and Rain
9:54 PM 62.1 °F 59.0 °F 90% 30.00 in 5.0 mi Calm Calm - 0.21 in Rain , Thunderstorm Thunderstorms and Rain
10:01 PM 60.8 °F 59.0 °F 94% 30.00 in 5.0 mi North 8.1 mph - 0.02 in Rain , Thunderstorm Heavy Thunderstorms and Rain
10:45 PM 60.8 °F 60.8 °F 100% 29.99 in 2.0 mi SSE 10.4 mph - 0.39 in Rain , Thunderstorm Heavy Thunderstorms and Rain
10:54 PM 62.1 °F 61.0 °F 96% 29.95 in 1.2 mi SE 23.0 mph - 0.53 in Rain , Thunderstorm Heavy Thunderstorms and Rain
11:01 PM 62.6 °F 60.8 °F 94% 30.00 in 2.0 mi SSE 19.6 mph - 0.21 in Rain , Thunderstorm Light Rain
11:09 PM 62.6 °F 60.8 °F 94% 29.98 in 3.0 mi ESE 13.8 mph - 0.27 in Rain , Thunderstorm Heavy Rain
11:50 PM 62.6 °F 60.8 °F 94% 29.94 in 4.0 mi SE 13.8 mph 20.7 mph 0.47 in Rain , Thunderstorm Heavy Rain
11:54 PM 62.1 °F 61.0 °F 96% 29.94 in 4.0 mi SSE 12.7 mph 20.7 mph 0.50 in Rain , Thunderstorm Light Rain